x

Frying Pan Shoals, Nc Buoy (41013) Weather Station

8:10 - Thu 8th Dec 2016 All times are EST. -5 hours from GMT.

  • Wind
    27mph, 31mph gusts
  • Sea Temp 73°f
  • Air Temp 57°f
  • Sea Pressure 1021.3mb
  • Frying Pan Shoals, Nc Buoy
  • Frying Pan Shoals, Nc Buoy

More Historic Weather Station data

Upgrade to MSW Pro to gain access to the past 30 days of data for over 8000 Wavebouys and Weather Stations around the globe.

Join Pro

Comparision Forecast

View Surf forecast
   
jeu. 12/08 8:10  -   -   -  27 31 mph 1021.3mb 73f 57f
8:00  -   -   -  25 31 mph 1021.3mb 73f 57f
7:50 3.5ft 4s 4s 25 34 mph 1021.3mb 73f 58f
7:40 3.5ft  -  4s 25 34 mph 1021mb 73f 58f
7:30  -   -   -  22 29 mph 1020.8mb 73f 58f
7:20  -   -   -  20 29 mph 1021mb 73f 58f
7:10  -   -   -  22 27 mph 1021mb 73f 59f
7:00  -   -   -  22 27 mph 1020.5mb 73f 58f
6:50 3ft 10s 4s 22 27 mph 1020.5mb 74f 59f
6:40 3ft  -  4s 22 27 mph 1020.4mb 74f 59f
6:30  -   -   -  20 27 mph 1020.1mb 74f 59f
6:20  -   -   -  20 25 mph 1020mb 74f 59f
6:10  -   -   -  20 27 mph 1020mb 74f 59f
6:00  -   -   -  20 27 mph 1019.6mb 74f 60f
5:50 3.5ft 4s 4s 18 22 mph 1019.5mb 74f 61f
5:40  -   -   -  16 18 mph 1019.3mb 74f 61f
5:30  -   -   -  16 20 mph 1019.1mb 74f 61f
5:20  -   -   -  16 25 mph 1019mb 74f 61f
5:10  -   -   -  16 22 mph 1018.8mb 74f 60f
5:00  -   -   -  16 20 mph 1018.8mb 74f 60f
4:50 3.5ft 4s 4s 16 20 mph 1018.5mb 74f 60f
4:40 3.5ft  -  4s 16 20 mph 1018.5mb 74f 60f
4:30  -   -   -  16 20 mph 1018.3mb 74f 60f
4:20  -   -   -  16 20 mph 1018mb 74f 60f
4:10  -   -   -  16 22 mph 1018mb 74f 60f
4:00  -   -   -  16 20 mph 1017.9mb 74f 60f
3:50 3.5ft 4s 4s 16 22 mph 1017.6mb 74f 60f
3:40 3.5ft  -  4s 18 25 mph 1017.5mb 74f 60f
3:30  -   -   -  16 20 mph 1017.4mb 74f 60f
3:20  -   -   -  18 22 mph 1017.1mb 74f 60f
3:10  -   -   -  18 25 mph 1017mb 74f 60f
3:00  -   -   -  18 25 mph 1017mb 74f 60f
2:50 3.5ft 4s 4s 18 25 mph 1017mb 74f 60f
2:40 3.5ft  -  4s 18 22 mph 1016.9mb 74f 60f
2:30  -   -   -  18 25 mph 1016.8mb 74f 60f
2:20  -   -   -  18 25 mph 1017mb 74f 60f
2:10  -   -   -  20 25 mph 1016.9mb 74f 60f
2:00  -   -   -  20 25 mph 1016.8mb 74f 60f
1:50 3.5ft 4s 4s 20 27 mph 1016.8mb 74f 61f
1:40 3.5ft  -  4s 20 25 mph 1016.8mb 74f 61f
1:30  -   -   -  20 25 mph 1016.6mb 74f 61f
1:20  -   -   -  18 25 mph 1016.8mb 74f 61f
1:10  -   -   -  18 22 mph 1016.9mb 74f 61f
1:00  -   -   -  18 22 mph 1017mb 74f 61f
12:50 3.5ft 10s 4s 18 22 mph 1017.3mb 74f 61f
12:40 3.5ft  -  4s 16 22 mph 1017.4mb 74f 61f
12:30  -   -   -  16 20 mph 1017.6mb 74f 61f
12:20  -   -   -  16 20 mph 1017.8mb 74f 61f
12:10  -   -   -  16 20 mph 1018mb 74f 61f
12:00  -   -   -  16 20 mph 1018mb 74f 61f
11:50 3ft 4s 4s 16 20 mph 1018.1mb 74f 61f
11:40 3ft  -  4s 16 22 mph 1018.3mb 74f 60f
11:30  -   -   -  16 20 mph 1018.4mb 74f 61f
11:20  -   -   -  16 22 mph 1018.5mb 74f 61f
11:10  -   -   -  16 20 mph 1018.5mb - 61f
11:00  -   -   -  13 20 mph 1018.6mb 74f 62f
10:50 2.5ft 9s 4s 16 18 mph 1018.8mb 74f 61f
10:40  -   -   -  13 20 mph 1019mb 74f 62f
10:30  -   -   -  13 18 mph 1019mb - -
10:20  -   -   -  16 22 mph 1019mb 73f 62f
10:10  -   -   -  16 18 mph 1018.9mb 73f 62f
10:00  -   -   -  16 20 mph 1019mb 73f 62f
9:50 2.5ft 10s 5s 13 18 mph 1019mb 73f 63f
9:40 2.5ft  -  5s 13 18 mph 1018.8mb 73f 63f
9:30  -   -   -  11 18 mph 1018.8mb 73f 63f
9:20  -   -   -  11 16 mph 1018.8mb 73f 63f
9:10  -   -   -  11 16 mph 1018.5mb 73f 63f
9:00  -   -   -  11 13 mph 1018.3mb 73f 63f
8:50 3ft 7s 5s 11 16 mph 1018.1mb 73f 63f
8:40 3ft  -  5s 11 13 mph 1018.1mb 73f 63f
8:30  -   -   -  9 13 mph 1018mb 73f 63f
8:20  -   -   -  11 13 mph 1018mb - -
8:10  -   -   -  11 16 mph 1018mb - -
8:00  -   -   -  11 16 mph 1018mb - -
7:50 3.5ft 10s 5s 11 16 mph 1018mb 73f 63f
7:40 3.5ft  -  5s 11 16 mph 1018mb 73f 63f
7:30  -   -   -  11 13 mph 1018mb 74f 63f
7:20  -   -   -  11 16 mph 1018mb 74f 63f
7:10  -   -   -  13 18 mph 1018mb 74f 64f
7:00  -   -   -  16 20 mph 1018mb 73f 64f
6:50 3ft 9s 5s 16 20 mph 1017.9mb 74f 64f
6:40 3ft  -  5s 16 20 mph 1017.8mb 74f 64f
6:30  -   -   -  16 20 mph 1017.8mb 74f 64f
6:20  -   -   -  13 20 mph 1017.8mb 74f 64f
6:10  -   -   -  13 20 mph 1017.6mb 73f 64f
6:00  -   -   -  11 16 mph 1017.6mb 74f 63f
5:50 3ft 7s 4s 13 16 mph 1017.6mb 74f 63f
5:40  -   -   -  13 18 mph 1017.6mb 74f 63f
5:30  -   -   -  16 20 mph 1017.6mb 74f 63f
5:20  -   -   -  16 20 mph 1017.5mb 74f 63f
5:10  -   -   -  16 20 mph 1017.5mb 74f 63f
5:00  -   -   -  16 20 mph 1017.5mb 74f 64f
4:50 3ft 9s 5s 16 20 mph 1017.5mb 74f 64f
4:40 3ft  -  5s 16 18 mph 1017.5mb 74f 63f
4:30  -   -   -  16 20 mph 1017.5mb 74f 63f
4:20  -   -   -  16 20 mph 1017.5mb 74f 63f
4:10  -   -   -  18 22 mph 1017.5mb 74f 63f
4:00  -   -   -  18 22 mph 1017.5mb 74f 62f
3:50 2.5ft 10s 6s 16 20 mph 1017.5mb 74f 62f
3:40 2.5ft  -  6s 16 18 mph 1017.5mb 74f 62f
3:30  -   -   -  16 18 mph 1017.5mb 74f 63f
3:20  -   -   -  11 18 mph 1017.5mb 74f 63f
3:10  -   -   -  9 13 mph 1017.5mb 74f 62f
3:00  -   -   -  7 11 mph 1017.5mb 74f 63f
2:50 3ft 7s 7s 4 9 mph 1017.5mb 74f 62f
2:40 3ft  -  7s 4 9 mph 1017.4mb 74f 62f
2:30  -   -   -  4 7 mph 1017.4mb 74f 62f
2:20  -   -   -  2 4 mph 1017.3mb 74f 62f
mer. 12/07 11:30  -   -   -  2 7 mph 1018.5mb 74f 62f
11:20  -   -   -  2 7 mph 1018.4mb 74f 62f
11:10  -   -   -   -  mph 1018.1mb 74f -
11:00  -   -   -  2 4 mph 1018.1mb 74f 62f
10:50 3ft 7s 6s 2 4 mph 1018.3mb 74f 62f
10:40 3ft  -  6s  -  4 mph 1018.4mb 74f 62f
10:30  -   -   -  2 4 mph 1018.4mb 74f 62f
10:20  -   -   -  2 4 mph 1018.4mb 74f 61f
10:10  -   -   -  2 4 mph 1018.3mb 74f 61f
10:00  -   -   -  2 4 mph 1018.4mb 74f 62f
9:50 3ft 8s 6s  -  2 mph 1018.4mb 74f 61f
9:40 3ft  -  6s  -  4 mph 1018.5mb 74f 61f
9:30  -   -   -  2 4 mph 1018.5mb 74f 61f
9:20  -   -   -   -  2 mph 1018.5mb 74f 61f
9:10  -   -   -  2
mph
1018.5mb 73f 61f
9:00  -   -   -  2 4 mph 1018.5mb 74f 61f
8:50 3ft 8s 6s 2 4 mph 1018.5mb 73f 61f
8:40 3ft  -  6s 2 7 mph 1018.5mb 73f 61f
8:30  -   -   -  2 4 mph 1018.5mb 73f 61f
8:20  -   -   -  2 4 mph 1018.4mb 73f 61f
8:10  -   -   -  2 7 mph 1018.5mb 73f 61f
8:00  -   -   -  2 4 mph - 73f 61f
7:50 3ft  -  5s 4 7 mph 1018.5mb - 61f
7:43 3ft 7s 5s  -  mph - 73f -
7:40  -   -   -  2 7 mph 1018.5mb 73f 61f
7:30  -   -   -  2 4 mph 1018.5mb 73f 60f
7:20  -   -   -   -  4 mph 1018.4mb 73f 60f
7:10  -   -   -  2 4 mph 1018.3mb 73f 60f
7:00  -   -   -  2 4 mph 1018.4mb 73f 60f
6:50 3ft 7s 6s 2 4 mph 1018.4mb 73f 60f
6:40 3ft  -  6s 2 4 mph 1018.1mb 73f 60f
6:30  -   -   -  2 4 mph 1018.1mb 73f 60f
6:20  -   -   -  2 4 mph 1018mb 73f 60f
6:10  -   -   -  2 4 mph 1017.9mb 73f 60f
6:00  -   -   -   -  4 mph 1017.8mb 73f 60f
5:50 3.5ft 8s 5s 2 7 mph 1017.6mb 73f 60f
5:40 3.5ft  -  5s 2 4 mph 1017.6mb 73f 60f
5:30  -   -   -  2 4 mph 1017.6mb 73f 60f
5:20  -   -   -  4 7 mph 1017.5mb 73f 60f
5:10  -   -   -  4
mph
1017.5mb 73f 60f
5:00  -   -   -  4 7 mph 1017.4mb 74f 59f
4:50 3.5ft 8s 5s 2 7 mph 1017.4mb 74f 59f
4:40  -   -   -  2 7 mph 1017.4mb 74f 59f
4:30  -   -   -  4 7 mph 1017.4mb 74f 59f
4:20  -   -   -  2 7 mph 1017.4mb 74f 59f
4:10  -   -   -  4 7 mph 1017.4mb 74f 59f
4:00  -   -   -  4 9 mph 1017.4mb 74f 59f
3:50 3.5ft 8s 5s 4 7 mph 1017.5mb 74f 59f
3:40 3.5ft  -  5s 4 9 mph 1017.1mb 74f 59f
3:30  -   -   -  4 7 mph 1017mb 74f 59f
3:20  -   -   -  4 9 mph 1017mb 74f 59f
3:10  -   -   -  7 9 mph 1017mb 74f 58f
3:00  -   -   -  7 13 mph 1016.9mb 74f 58f
2:50 4ft 8s 5s 7 11 mph 1017mb 74f 58f
2:40 4ft  -  5s 7 11 mph 1017mb 74f 58f
2:30  -   -   -  9 13 mph 1016.9mb 74f 58f
2:20  -   -   -  9 13 mph 1016.9mb 74f 58f
2:10  -   -   -  9 13 mph 1016.8mb 74f 58f
2:00  -   -   -  11 16 mph 1016.6mb 74f 58f
1:50 4.5ft 8s 5s 11 16 mph 1016.5mb 74f 58f
1:40 4.5ft  -  5s 11 16 mph 1016.6mb 74f 57f
1:30  -   -   -  11 16 mph 1016.6mb 74f 57f
1:20  -   -   -  11 18 mph 1016.5mb 74f 57f
1:10  -   -   -  11 18 mph 1016.5mb 74f 56f
1:00  -   -   -  13 18 mph 1016.6mb 74f 57f
12:50 3.5ft  -  5s 13 18 mph 1016.5mb 74f 56f
12:43 3.5ft 8s 5s  -  mph - - -
12:40 3.5ft  -  5s 13 20 mph 1016.5mb 74f 56f
12:30  -   -   -  13 20 mph 1016.5mb 74f 56f
12:20  -   -   -  16 20 mph 1016.8mb 74f 56f
12:10  -   -   -  16 20 mph 1016.8mb 74f 56f
12:00  -   -   -  16 20 mph 1016.9mb 74f 56f
11:50 4ft 8s 5s 16 20 mph 1017mb 74f 56f
11:40 4ft  -  5s 13 20 mph 1017mb 74f 56f
11:30  -   -   -  13 18 mph 1017mb 74f 56f
11:20  -   -   -  13 18 mph 1017mb 74f 56f
11:10  -   -   -  13 18 mph 1017.1mb 74f 55f
11:00  -   -   -  16 22 mph 1017.4mb 74f 55f
10:50 4.5ft 8s 5s 16 20 mph 1017.3mb 74f 55f
10:40  -   -   -  16 22 mph 1017.5mb 74f 55f
10:30  -   -   -  18 22 mph 1017.6mb 74f 55f
10:20  -   -   -  18 25 mph 1017.8mb 74f 55f
10:10  -   -   -  18 22 mph 1017.8mb 74f 56f
10:00  -   -   -  18 22 mph 1017.6mb 74f 55f
9:50 4.5ft  -  5s 18 22 mph 1017.6mb 74f 56f
9:43 4.5ft 8s 5s  -  mph - - -
9:40  -   -   -  18 22 mph 1017.6mb 74f 55f
9:30  -   -   -  18 25 mph 1017.5mb 74f 56f
9:20  -   -   -  18 22 mph 1017.5mb 74f 55f
9:10  -   -   -  18 25 mph 1017.4mb 74f 55f
9:00  -   -   -  18 25 mph 1017.1mb 74f 55f
8:50 4.5ft 9s 5s 20 25 mph 1017mb 74f 56f
8:40  -   -   -  20 27 mph 1016.9mb 74f 55f
8:30  -   -   -  20 27 mph 1016.9mb 74f 56f
8:20  -   -   -  20 27 mph 1016.9mb 74f 56f
8:10  -   -   -  20 27 mph 1016.6mb - 56f
8:00  -   -   -  20 27 mph 1016.6mb 73f 56f
7:50 4.5ft 9s 5s 20 27 mph 1016.5mb 73f 56f
7:40 4.5ft  -  5s 20 27 mph 1016.3mb 73f 56f
7:30  -   -   -  18 25 mph 1016.3mb 73f 56f
7:20  -   -   -  18 22 mph 1016mb 73f 57f
7:10  -   -   -  16 22 mph 1016mb - -
7:00  -   -   -  18 25 mph 1015.9mb 73f 56f
6:50 5ft 9s 5s 16 22 mph 1015.5mb 74f 57f
6:40  -   -   -  16 20 mph 1015.5mb 73f 57f
6:30  -   -   -  13 20 mph 1015.1mb 74f 57f
6:20  -   -   -  13 20 mph 1015.1mb 73f 56f
6:10  -   -   -  13 20 mph 1015mb 74f 56f
6:00  -   -   -  13 18 mph 1015mb 74f 56f
5:50 5ft 9s 5s 13 18 mph 1014.8mb 73f 56f
5:40 5ft  -  5s 13 18 mph 1014.6mb 74f 57f
5:30  -   -   -  13 18 mph 1014.5mb 74f 56f
5:20  -   -   -  13 20 mph 1014.4mb 74f 56f
5:10  -   -   -  16 20 mph 1014.1mb 74f 56f
5:00  -   -   -  16 20 mph 1013.9mb 74f 56f
4:50 5.5ft 9s 6s 16 20 mph 1013.6mb 74f 56f
4:40 5.5ft  -  6s 16 22 mph 1013.6mb 74f 57f
4:30  -   -   -  16 20 mph 1013.5mb 74f 57f
4:20  -   -   -  13 18 mph 1013.5mb 74f 56f
4:10  -   -   -  16 20 mph 1013.3mb 74f 56f
4:00  -   -   -  16 20 mph 1013mb 74f 56f
3:50 5ft 8s 5s 16 20 mph 1013mb 74f 56f
3:40 5ft  -  5s 16 20 mph 1012.9mb 74f 57f
3:30  -   -   -  16 22 mph 1012.8mb 74f 57f
3:20  -   -   -  18 25 mph 1012.8mb 74f 57f
3:10  -   -   -  18 25 mph 1012.6mb 74f 57f
3:00  -   -   -  18 22 mph 1012.6mb 74f 57f
2:50 5.5ft 8s 5s 18 22 mph 1012.5mb 74f 58f
2:40 5.5ft  -  5s 18 25 mph 1012.4mb 74f 58f
2:30  -   -   -  16 22 mph 1012.3mb 74f 58f
2:20  -   -   -  16 20 mph 1012mb 74f 58f
2:10  -   -   -  16 22 mph 1012mb 74f 58f
2:00  -   -   -  16 20 mph 1011.8mb 74f 58f
1:50 7ft 9s 6s 18 22 mph 1011.5mb 74f 58f
1:40 7ft  -  6s 18 22 mph 1011.5mb 74f 58f
1:30  -   -   -  18 25 mph 1011.3mb 74f 58f
1:20  -   -   -  18 25 mph 1011.1mb 74f 58f
1:10  -   -   -  20 27 mph 1011.1mb 74f 58f
1:00  -   -   -  20 25 mph 1011mb 74f 58f
12:50 7.5ft 9s 6s 20 25 mph 1011mb 74f 59f
12:40 7.5ft  -  6s 20 27 mph 1011mb 74f 59f
12:30  -   -   -  20 27 mph 1011mb 74f 59f
12:20  -   -   -  22 29 mph 1011.1mb 74f 59f
12:10  -   -   -  22 29 mph 1011mb 74f 59f
12:00  -   -   -  25 29 mph 1011mb 74f 60f
mar. 12/06 11:50 7ft 10s 6s 25 29 mph 1011mb 74f 60f
11:40 7ft  -  6s 27 34 mph 1010.9mb 74f 60f
11:30  -   -   -  27 34 mph 1010.8mb 74f 60f
11:20  -   -   -  25 31 mph 1010.5mb 74f 61f
11:10  -   -   -  25 29 mph 1010.5mb 74f 60f
11:00  -   -   -  22 29 mph 1010.5mb 74f 61f
10:50 8ft 8s 6s 22 29 mph 1010.5mb 74f 61f
10:40 8ft  -  6s 22 29 mph 1010.4mb 74f 61f
10:30  -   -   -  22 27 mph 1010.3mb 74f 61f
10:20  -   -   -  22 27 mph 1010.4mb 74f 61f
10:10  -   -   -  22 31 mph 1010mb 74f 61f
10:00  -   -   -  25 31 mph 1010mb 74f 61f
9:50 8ft 9s 6s 22 31 mph 1010mb 74f 62f
8:50 7.5ft 8s 6s 25 34 mph 1009mb 74f 64f
7:50 8ft 8s 6s 29 36 mph 1008mb 74f 67f
7:30  -   -   -  27 34 mph 1007.8mb 74f 68f
7:20  -   -   -  27 34 mph 1007.5mb 74f 68f
7:10  -   -   -  27 34 mph 1007.5mb 74f 68f
7:00  -   -   -  29 36 mph 1007.4mb 74f 69f
6:50 8ft 7s 6s 29 38 mph 1007mb 74f 70f
6:40  -   -   -  25 31 mph 1006.8mb 74f 72f
6:30  -   -   -  25 31 mph 1006.6mb 74f 72f
6:20  -   -   -  27 34 mph 1006.4mb 74f 72f
6:10  -   -   -  25 34 mph 1006.1mb 74f 72f
6:00  -   -   -  27 31 mph 1006mb 74f 72f
5:50 8.5ft 8s 6s 27 36 mph 1005.8mb 74f 72f
5:40 8.5ft  -  6s 29 38 mph 1005.6mb 74f 72f
5:30  -   -   -  31 40 mph 1005.5mb 74f 73f
5:20  -   -   -  31 38 mph 1005.4mb 74f 74f
5:10  -   -   -  31 40 mph 1005.1mb 74f 74f
5:00  -   -   -  29 38 mph 1005mb 74f 74f
4:50 8ft 8s 6s 27 36 mph 1004.8mb 74f 75f
4:40 8ft  -  6s 29 36 mph 1004.5mb 74f 75f
4:30  -   -   -  27 36 mph 1004.3mb 74f 75f
4:20  -   -   -  27 38 mph 1004.3mb 74f 75f
4:10  -   -   -  27 36 mph 1004mb 74f 75f
4:00  -   -   -  27 36 mph 1003.9mb 74f 75f
3:50 7.5ft 7s 6s 25 34 mph 1003.5mb 74f 75f
3:40 7.5ft  -  6s 25 29 mph 1003.3mb 74f 75f
3:30  -   -   -  25 31 mph 1003.4mb 74f -
3:20  -   -   -  22 29 mph 1003.5mb 74f 74f
3:10  -   -   -  22 29 mph 1003.5mb 74f 74f
3:00  -   -   -  22 29 mph 1003.5mb - -
2:50 7ft 7s 5s 22 29 mph 1003.6mb 74f 74f
2:40 7ft  -  5s 22 29 mph 1003.6mb 74f 73f
2:30  -   -   -  25 31 mph 1003.6mb 74f 73f
2:20  -   -   -  27 34 mph 1003.9mb 74f 73f
2:10  -   -   -  25 34 mph 1003.9mb 74f 73f
2:00  -   -   -  27 34 mph 1003.9mb 74f 73f
1:50 6.5ft 7s 5s 27 34 mph 1004.1mb 74f 73f
12:50 6.5ft 6s 5s 22 29 mph 1005mb - 72f
12:30  -   -   -  22 29 mph 1005.3mb 74f 72f
12:20  -   -   -  22 29 mph 1005.9mb 74f 72f
12:10  -   -   -  22 29 mph 1006mb 74f 73f
12:00  -   -   -  25 31 mph 1006.4mb 74f 73f
11:50 6.5ft 6s 5s 27 34 mph 1006.6mb 74f 74f
11:40 6.5ft  -  5s 25 34 mph 1006.5mb 74f 74f
11:30  -   -   -  22 31 mph 1006.6mb 74f 74f
11:20  -   -   -  20 27 mph 1006.5mb 74f 74f
11:10  -   -   -  20 27 mph 1006.8mb 74f 75f
11:00  -   -   -  25 34 mph 1007mb 74f 75f
10:50 6ft 6s 5s 18 29 mph 1007.3mb 74f 75f
10:40 6ft  -  5s 20 27 mph 1007.5mb 74f 74f
10:30  -   -   -  22 27 mph 1007.8mb 74f 74f
10:20  -   -   -  16 25 mph 1007.9mb 74f 73f
10:10  -   -   -  16 20 mph 1007.9mb 74f 73f
10:00  -   -   -  16 22 mph 1008mb 74f 72f
9:50 6.5ft 7s 5s 16 25 mph 1008.3mb 74f 73f
9:40  -   -   -  16 25 mph 1008.3mb 74f 73f
9:30  -   -   -  16 22 mph 1008.1mb 74f 73f
9:20  -   -   -  16 20 mph 1008.3mb 74f 73f
9:10  -   -   -  16 20 mph 1008.3mb 74f 73f
9:00  -   -   -  18 25 mph 1008.4mb 74f 73f
8:50 7ft 7s 5s 18 25 mph 1008.5mb 74f 73f
8:40  -   -   -  18 20 mph 1008.5mb 74f 73f
8:30  -   -   -  13 18 mph 1008.6mb 74f 73f
8:20  -   -   -  11 16 mph 1008.9mb 73f 72f
8:10  -   -   -  11 13 mph 1009mb 74f 71f
8:00  -   -   -  9 13 mph 1009.5mb 74f 71f
7:50 7.5ft 6s 5s 9 13 mph - 74f 70f
7:40  -   -   -  9 16 mph 1010mb 74f 70f
7:30  -   -   -  13 20 mph 1010mb 74f 69f
7:20  -   -   -  11 25 mph 1010.5mb 74f 69f
7:10  -   -   -  20 31 mph 1010.8mb 74f 69f
7:00  -   -   -  27 40 mph 1010.5mb 74f 68f
6:50 8ft 6s 5s 27 36 mph 1009.8mb 74f 68f
6:40  -   -   -  29 36 mph 1010mb 74f 68f
6:30  -   -   -  27 34 mph 1010.4mb 74f 68f
6:20  -   -   -  27 36 mph 1010.6mb 74f 68f
6:10  -   -   -  25 34 mph 1010.3mb - 69f
6:00  -   -   -  25 31 mph 1010.6mb 74f 69f
5:50 8ft 6s 5s 25 34 mph 1010.5mb 74f 69f
5:40  -   -   -  29 36 mph - 74f 69f
5:30  -   -   -  29 36 mph 1010.3mb 74f 68f
5:20  -   -   -  27 34 mph 1010.8mb 74f 68f
5:10  -   -   -  27 36 mph 1010.8mb 74f 68f
5:00  -   -   -  25 31 mph 1011.5mb 74f 68f
4:50 6.5ft 6s 5s 29 36 mph 1011.5mb 74f 67f
4:40 6.5ft  -  5s 29 36 mph 1010.9mb 74f 67f
4:30  -   -   -  27 34 mph 1011.4mb 74f 67f
4:20  -   -   -  27 31 mph 1012mb 74f 67f
4:10  -   -   -  25 29 mph 1012.1mb 74f 66f
4:00  -   -   -  25 29 mph 1012.5mb 74f 66f
3:50 6.5ft 6s 5s 25 31 mph 1012.5mb 74f 66f
3:40  -   -   -  25 29 mph 1012.8mb 74f 66f
3:30  -   -   -  25 29 mph 1013mb 74f 66f
3:20  -   -   -  25 29 mph 1013mb 74f 66f
3:10  -   -   -  25 31 mph 1013mb 74f 66f
3:00  -   -   -  25 29 mph 1013.4mb 74f 66f
2:50 6ft 6s 5s 25 31 mph 1013.4mb 74f 66f
2:40 6ft  -  5s 25 31 mph 1013mb 74f 66f
2:30  -   -   -  25 34 mph 1012.8mb 74f 66f
2:20  -   -   -  25 31 mph 1013.1mb 74f 66f
2:10  -   -   -  25 29 mph 1013.5mb 74f 66f
2:00  -   -   -  22 29 mph 1013.8mb 74f 66f
1:50 6ft 6s 5s 22 29 mph 1013.8mb 74f 66f
1:40  -   -   -  22 27 mph 1014mb 74f 66f
1:30  -   -   -  22 27 mph 1013.9mb 74f 66f
1:20  -   -   -  22 27 mph 1014mb 74f 66f
1:10  -   -   -  22 29 mph 1013.9mb 74f 66f
1:00  -   -   -  22 27 mph 1013.6mb 74f 66f
12:50 5.5ft 6s 5s 22 29 mph 1013.8mb 74f 66f
12:40 5.5ft  -  5s 22 27 mph 1013.9mb 74f 66f
12:30  -   -   -  22 27 mph 1014mb 74f 66f
12:20  -   -   -  25 31 mph 1013.6mb 74f 66f
12:10  -   -   -  25 31 mph 1013.5mb 74f 66f
12:00  -   -   -  25 29 mph 1013.5mb 74f 66f
lun. 12/05 11:50 5ft 5s 5s 25 31 mph 1013.6mb 74f 66f
11:40 5ft  -  5s 25 29 mph 1013.8mb - 66f
11:30  -   -   -  25 29 mph 1014.1mb 74f 66f
11:20  -   -   -  22 27 mph 1014.6mb 74f 66f
11:10  -   -   -  20 27 mph 1015mb 74f 66f
11:00  -   -   -  20 25 mph 1015.1mb 74f 66f
10:50 4.5ft 5s 5s 20 25 mph 1015.5mb 74f 66f
10:40  -   -   -  20 25 mph 1015.1mb 74f 67f
10:30  -   -   -  18 22 mph 1015.3mb 74f 67f
10:20  -   -   -  20 25 mph 1015.1mb 74f 67f
10:10  -   -   -  20 25 mph 1015mb 74f 67f
10:00  -   -   -  20 25 mph 1015.3mb 74f 67f
9:50 4.5ft 7s 5s 22 27 mph 1014.8mb 74f 67f
9:40 4.5ft  -  5s 22 29 mph 1014.6mb 74f 67f
9:30  -   -   -  20 27 mph 1015mb 74f 67f
9:20  -   -   -  20 25 mph 1015mb 74f 67f
9:10  -   -   -  20 27 mph 1015mb 74f 67f
9:00  -   -   -  20 25 mph 1015.3mb 74f 66f
8:50 4.5ft 7s 5s 18 25 mph 1015.5mb 74f 66f
8:40  -   -   -  20 25 mph 1015.6mb 74f 66f
8:30 4.5ft  -  5s 20 25 mph 1015.5mb 74f 66f
8:20  -   -   -  18 25 mph 1015.8mb 74f 66f
8:10  -   -   -  20 25 mph - - 66f
8:00  -   -   -  20 29 mph 1015.3mb 74f 66f
7:50 4.5ft 7s 5s 20 25 mph 1015.5mb 74f 66f
7:40 4.5ft  -  5s 20 25 mph 1015.5mb 74f 66f
7:30  -   -   -  20 25 mph 1015.6mb 74f 66f
7:20  -   -   -  20 25 mph 1015.5mb 74f 66f
7:10  -   -   -  18 25 mph 1015.8mb 74f 66f
7:00  -   -   -  16 22 mph 1015.8mb 74f 65f
6:50 4.5ft 7s 5s 16 20 mph 1015.8mb 74f 65f
6:40 4.5ft  -  5s 16 22 mph 1015.9mb 74f 65f
6:20  -   -   -  18 22 mph 1015.6mb 74f 65f
6:10  -   -   -  18 22 mph 1015.5mb 74f 64f
6:00  -   -   -  18 25 mph 1015.5mb 74f 64f
5:50 4.5ft 7s 5s 18 25 mph 1015.5mb 74f 64f
5:40 4.5ft  -  5s 18 25 mph 1015.1mb 74f 64f
5:30  -   -   -  18 22 mph 1015.1mb 74f 63f
5:20  -   -   -  20 25 mph 1015mb 74f 63f
5:10  -   -   -  20 25 mph 1014.9mb 74f 63f
5:00  -   -   -  18 25 mph 1014.6mb 74f 63f
4:50 4.5ft 7s 5s 18 25 mph 1014.6mb 74f 62f
4:40 4.5ft  -  5s 20 27 mph 1014.6mb 74f 62f
4:30  -   -   -  20 25 mph 1014.5mb 74f 62f
4:20  -   -   -  20 25 mph 1014.5mb 74f 62f
4:10  -   -   -  20 25 mph 1014.4mb 74f 62f
4:00  -   -   -  20 27 mph 1014.4mb 74f 62f
3:50 4.5ft 7s 5s 20 25 mph 1014.3mb 74f 61f
3:40 4.5ft  -  5s 20 25 mph 1014.1mb 74f 61f
3:30  -   -   -  18 25 mph 1014.3mb 74f 61f
3:20  -   -   -  20 27 mph 1014.4mb 74f 60f
3:10  -   -   -  20 25 mph 1014.3mb 74f 60f
3:00  -   -   -  20 25 mph 1014.3mb 74f 60f
2:50 5ft 7s 5s 18 25 mph 1014.3mb 74f 60f
2:40 5ft  -  5s 18 22 mph 1014.3mb 74f 60f
2:30  -   -   -  16 22 mph 1014.1mb 74f 60f
2:20  -   -   -  16 20 mph 1014.1mb 74f 60f
2:10  -   -   -  16 20 mph 1014mb 74f 60f
2:00  -   -   -  16 22 mph 1014.1mb 74f 60f
1:50 5ft 7s 5s 16 20 mph 1014mb 74f 61f
1:40  -   -   -  16 20 mph 1014mb 74f 60f
1:30  -   -   -  16 20 mph 1014mb 74f 61f
1:20  -   -   -  16 22 mph 1013.9mb 74f 60f
1:10  -   -   -  13 20 mph 1014mb 74f 60f
1:00  -   -   -  13 20 mph 1014.4mb 75f 60f
12:50 5ft 8s 5s 13 20 mph 1014.4mb 75f 60f
12:40 5ft  -  5s 16 20 mph 1014.4mb 75f 60f
12:30  -   -   -  18 25 mph 1014.4mb 75f 61f
12:20  -   -   -  18 22 mph 1014.1mb 75f 61f
12:10  -   -   -  18 22 mph 1014.4mb 75f 61f
12:00  -   -   -  16 22 mph 1014.1mb 75f 61f
11:50 6ft 7s 5s 13 22 mph 1014.5mb 75f 61f
11:40 6ft  -  5s 16 22 mph 1014.6mb 75f 61f
11:30  -   -   -  18 22 mph 1014.8mb 75f 61f
11:20  -   -   -  18 25 mph 1014.8mb 75f 61f
11:10  -   -   -  18 25 mph 1015.1mb 75f 61f
11:00  -   -   -  20 25 mph 1015.3mb 75f 62f
10:50 6ft 8s 5s 20 25 mph 1015.5mb 75f 62f
10:40 6ft  -  5s 20 27 mph 1015.5mb 75f 62f
10:30  -   -   -  18 27 mph 1015.5mb 75f 63f
10:20  -   -   -  20 27 mph 1015.5mb 75f 63f
10:10  -   -   -  20 25 mph 1015.4mb 75f 63f
10:00  -   -   -  20 25 mph 1015.3mb 75f 63f
9:50 7ft 7s 5s 20 27 mph 1015.1mb 75f 63f
9:40 7ft  -  5s 20 25 mph 1015.1mb 75f 64f
9:30  -   -   -  20 27 mph 1015mb 75f 64f
9:20  -   -   -  22 29 mph 1015.1mb 75f 64f
9:10  -   -   -  22 29 mph 1014.9mb 75f 65f
9:00  -   -   -  20 27 mph 1014.6mb 75f 65f
8:50 7.5ft 7s 6s 20 25 mph 1014.4mb 75f 66f
8:40  -   -   -  20 25 mph 1014.3mb 75f 66f
8:30  -   -   -  20 25 mph 1014.3mb 75f 66f
8:20  -   -   -  20 27 mph 1014.1mb 75f 66f
8:10  -   -   -  22 27 mph 1014mb - -
8:00  -   -   -  20 29 mph 1013.9mb - -
7:50 7.5ft  -  5s 22 27 mph 1013.8mb 74f 68f
7:43 7.5ft 7s 5s  -  mph - - -
7:40  -   -   -  22 29 mph 1013.8mb - 69f
7:30  -   -   -  20 27 mph 1013.5mb 74f 70f
7:20  -   -   -  22 29 mph 1013.4mb 74f 71f
7:10  -   -   -  25 34 mph 1013.3mb 74f 73f
7:00  -   -   -  27 38 mph 1013.1mb 74f 74f
6:50 9ft 7s 6s 31 43 mph 1013mb 74f 74f
6:40  -   -   -  31 43 mph 1012.5mb 74f 75f
6:30  -   -   -  29 36 mph 1012.6mb 74f 75f
6:20  -   -   -  27 36 mph 1013mb 74f 74f
6:10  -   -   -  27 36 mph 1012.8mb 74f 74f
6:00  -   -   -  27 36 mph 1013mb 74f 74f
5:50 8ft 7s 5s 27 34 mph 1013mb 74f 74f
5:40 8ft  -  5s 27 34 mph 1013mb 74f 74f
5:30  -   -   -  29 38 mph 1013mb 74f 74f
5:20  -   -   -  29 36 mph 1013mb 74f 74f
5:10  -   -   -  29 38 mph 1013.1mb 74f 74f
5:00  -   -   -  29 38 mph 1013.3mb 74f 74f
4:50 7ft 6s 5s 29 38 mph 1013.3mb 74f 74f
4:40 7ft  -  5s 29 38 mph 1013.4mb 74f 74f
4:30  -   -   -  29 38 mph 1013.5mb - -
4:20  -   -   -  29 38 mph 1013.5mb 74f 74f
4:10  -   -   -  29 36 mph 1013.5mb 74f 74f
4:00  -   -   -  27 34 mph 1013.6mb 74f 73f
3:50 7ft 6s 5s 27 34 mph 1013.8mb 74f 73f
3:40 7ft  -  5s 27 36 mph 1013.8mb 74f 73f
3:30  -   -   -  27 36 mph 1013.9mb 74f 73f
3:20  -   -   -  29 36 mph 1014.1mb 74f 73f
3:10  -   -   -  29 36 mph 1014.3mb 74f 73f
3:00  -   -   -  29 36 mph 1014.5mb 74f 73f
2:50 7ft 6s 5s 27 36 mph 1014.5mb 74f 73f
2:40 7ft  -  5s 27 36 mph 1014.6mb 74f 73f
2:30  -   -   -  27 34 mph 1014.6mb 74f 73f
2:20  -   -   -  27 34 mph 1014.6mb 74f 73f
2:10  -   -   -  27 34 mph 1014.6mb 74f 73f